Location: Newark
(50.5930°N, 3.6720°W)
Time: 04:24:04
(UTC+00:00)

X-37B - Pass Details

Date: 20 September 2020
Orbit: 382 x 392 km, 45.0° (Epoch: 15 October)

Event Time Altitude Azimuth Distance (km) Brightness Sun altitude
Exits shadow 04:37:50 22° 219° (SW) 885 1.9 -13.4°
Maximum altitude 04:38:44 26° 190° (S) 797 1.9 -13.2°
Drops below altitude 10° 04:41:26 10° 131° (SE) 1,403 3.8 -12.8°
Sets 04:43:41 0° 118° (ESE) 2,257 5.2 -12.5°
